[[{"header":{"parameterUnit":"m.s-1","parameterCategory":1,"la1":30.2992,"la2":30.254,"lo1":-89.0895,"lo2":-89.0443,"dy":0.0025,"dx":0.0025,"nx":19,"ny":19,"refTime":"2026-05-08T03:00:00:Z","depth":0,"parameterNumber":2,"parameterNumberName":"U-component_of_WINDS"},"data":[0,0,0,-3.1679,-3.1681,-3.1771,-3.1771,-3.1902,-3.1903,0,0,0,0,0,0,0,0,0,0,0,-3.1663,-3.1664,-3.1678,-3.1681,-3.1771,-3.1772,-3.1902,-3.1903,0,0,0,0,0,0,0,0,0,0,0,-3.1662,-3.1664,-3.1666,-3.1681,-3.1771,-3.1772,-3.1902,-3.1827,0,0,0,0,0,0,0,0,0,0,-3.1737,-3.1734,-3.1664,-3.1666,-3.1682,-3.1771,-3.1772,-3.1824,-3.1832,-3.1868,0,-3.1905,0,-3.1907,-3.1913,-3.1914,0,0,0,-3.1672,-3.1727,-3.1742,-3.1666,-3.1683,-3.1771,-3.1728,-3.1828,-3.1838,-3.188,-3.1907,-3.1911,-3.1909,-3.1914,-3.1915,-3.2158,-3.216,0,0,-3.1667,-3.1685,-3.1735,-3.1748,-3.1738,-3.1725,-3.1731,-3.1834,-3.1864,-3.1907,-3.1914,-3.1911,-3.1915,-3.1916,-3.2157,-3.2159,0,0,0,-3.1659,-3.1682,-3.1693,-3.1744,-3.1759,-3.1728,-3.1735,-3.1859,-3.1862,-3.1915,-3.1913,-3.1916,-3.1918,-3.2155,-3.2158,-3.2253,0,0,0,-3.1655,-3.1677,-3.1691,-3.1703,-3.1757,-3.1811,-3.1758,-3.1855,-3.1866,-3.1912,-3.1916,-3.1919,-3.2153,-3.2156,-3.2247,-3.2296,0,0,0,-3.1653,-3.1676,-3.1693,-3.1704,-3.1744,-3.1809,-3.1817,-3.1856,-3.1865,-3.1914,-3.192,-3.2152,-3.2156,-3.2241,-3.2286,-3.2366,0,0,0,-3.1655,-3.1776,-3.1695,-3.1828,-3.1743,-3.1867,-3.1816,-3.1907,-3.1961,-3.1917,-3.2154,-3.2157,-3.224,-3.2281,-3.236,-3.2437,-3.2471,0,0,-3.1817,-3.1796,-3.1873,-3.1803,-3.1947,-3.1852,-3.2009,-3.204,-3.2027,-3.2115,-3.2121,-3.2249,-3.2286,-3.2365,-3.2651,-3.2678,0,0,0,-3.193,-3.1986,-3.202,-3.2073,-3.2101,-3.2129,-3.2135,-3.2146,-3.222,-3.2077,-3.2298,-3.2319,-3.2365,-3.2401,-3.2424,-3.2462,-3.2174,-3.2174,-3.2174,-3.2184,-3.2163,-3.2289,-3.2279,-3.2331,-3.2336,-3.2376,-3.2392,-3.2354,-3.2406,-3.2433,-3.2609,-3.2652,-3.2669,-3.271,-3.2471,-3.2471,-3.2471,-3.2472,-3.242,-3.2496,-3.2444,-3.2548,-3.2524,-3.261,-3.2619,-3.2589,-3.2665,-3.2588,-3.2627,-3.2546,-3.27,-3.2734,-3.2479,-3.2477,-3.2477,-3.2476,-3.2475,-3.2585,-3.2618,-3.2631,-3.2707,-3.2766,-3.2751,-3.2827,-3.2801,-3.2777,-3.2816,-3.2841,-3.284,-3.2836,-3.283,-3.283,-3.2831,-3.2832,-3.2832,-3.2832,-3.2752,-3.2764,-3.2833,-3.2873,-3.2904,-3.2942,-3.2948,-3.2977,-3.3002,-3.2978,-3.2978,-3.2935,-3.2719,-3.2665,-3.2842,-3.284,-3.2839,-3.2838,-3.2837,-3.3002,-3.2941,-3.3047,-3.3079,-3.3124,-3.3185,-3.3152,-3.3214,-3.3233,-3.3272,-3.322,-3.3064,-3.304,-3.3022,-3.2978,-3.3224,-3.3224,-3.3224,-3.3224,-3.3142,-3.3128,-3.323,-3.3283,-3.333,-3.3311,-3.343,-3.3435,-3.3431,-3.3442,-3.3402,-3.3341,-3.3323,-3.3309,-3.3285,-3.3243,-3.3552,-3.3552,-3.3553,-3.3294,-3.3284,-3.3391,-3.3388,-3.3421,-3.345,-3.3561,-3.3622,-3.3604,-3.3565,-3.345,-3.3436,-3.3337,-3.3306,-3.3266,-3.3228,-3.3152,0,0]},{"header":{"parameterUnit":"m.s-1","parameterCategory":1,"la1":30.2992,"la2":30.254,"lo1":-89.0895,"lo2":-89.0443,"dy":0.0025,"dx":0.0025,"nx":19,"ny":19,"refTime":"2026-05-08T03:00:00:Z","depth":0,"parameterNumber":3,"parameterNumberName":"V-component_of_WINDS"},"data":[0,0,0,-2.2627,-2.2627,-2.2639,-2.2639,-2.2663,-2.2663,0,0,0,0,0,0,0,0,0,0,0,-2.2631,-2.2631,-2.2627,-2.2628,-2.2639,-2.2639,-2.2663,-2.2663,0,0,0,0,0,0,0,0,0,0,0,-2.2631,-2.2631,-2.2632,-2.2628,-2.2639,-2.2639,-2.2663,-2.2651,0,0,0,0,0,0,0,0,0,0,-2.2638,-2.2649,-2.2631,-2.2632,-2.2628,-2.2639,-2.2639,-2.265,-2.2651,-2.2662,0,-2.2675,0,-2.2669,-2.2665,-2.2666,0,0,0,-2.2622,-2.2647,-2.2644,-2.2632,-2.2628,-2.2639,-2.2632,-2.265,-2.2652,-2.2664,-2.2675,-2.2676,-2.267,-2.2666,-2.2666,-2.2748,-2.2748,0,0,-2.2622,-2.2637,-2.2643,-2.2645,-2.2646,-2.2632,-2.2633,-2.2651,-2.2664,-2.2675,-2.2676,-2.267,-2.2666,-2.2666,-2.2747,-2.2748,0,0,0,-2.2623,-2.2637,-2.2632,-2.2645,-2.2646,-2.2632,-2.2633,-2.2663,-2.266,-2.2676,-2.267,-2.2666,-2.2667,-2.2746,-2.2747,-2.2794,0,0,0,-2.2623,-2.2637,-2.2632,-2.2642,-2.2646,-2.2655,-2.2645,-2.2659,-2.2661,-2.267,-2.2666,-2.2667,-2.2746,-2.2747,-2.2791,-2.2813,0,0,0,-2.2628,-2.2638,-2.2642,-2.2642,-2.2648,-2.2654,-2.2653,-2.2659,-2.2658,-2.2666,-2.2667,-2.2745,-2.2747,-2.2788,-2.2809,-2.2839,0,0,0,-2.2637,-2.2684,-2.2643,-2.2692,-2.2648,-2.2683,-2.2652,-2.2677,-2.269,-2.2666,-2.2746,-2.2747,-2.2788,-2.2807,-2.2836,-2.2867,-2.2881,0,0,-2.2704,-2.2692,-2.272,-2.2684,-2.273,-2.268,-2.2732,-2.2729,-2.2716,-2.2737,-2.2739,-2.2792,-2.2809,-2.2838,-2.2955,-2.2966,0,0,0,-2.2746,-2.2766,-2.2775,-2.2788,-2.2786,-2.2786,-2.2773,-2.2772,-2.2789,-2.273,-2.281,-2.282,-2.2836,-2.285,-2.286,-2.2873,-2.2754,-2.2754,-2.2754,-2.2864,-2.2844,-2.2887,-2.2868,-2.288,-2.2865,-2.2873,-2.2868,-2.2845,-2.2864,-2.287,-2.2943,-2.296,-2.2968,-2.2981,-2.2884,-2.2885,-2.2885,-2.2885,-2.296,-2.2985,-2.2951,-2.2982,-2.2959,-2.2984,-2.297,-2.2953,-2.2972,-2.2937,-2.2951,-2.2915,-2.2981,-2.2992,-2.2888,-2.2888,-2.2887,-2.2887,-2.2887,-2.3036,-2.3044,-2.3041,-2.3055,-2.3068,-2.3046,-2.3065,-2.3044,-2.3024,-2.3037,-2.3042,-2.3041,-2.3037,-2.3041,-2.3041,-2.3041,-2.3041,-2.3042,-2.3042,-2.3116,-2.311,-2.313,-2.313,-2.3134,-2.3136,-2.312,-2.3123,-2.3121,-2.3103,-2.3103,-2.3078,-2.2991,-2.297,-2.3046,-2.3045,-2.3044,-2.3044,-2.3044,-2.3223,-2.3194,-2.3225,-2.3229,-2.3226,-2.3239,-2.321,-2.3218,-2.3217,-2.3227,-2.3197,-2.3136,-2.3123,-2.3115,-2.3097,-2.3202,-2.3202,-2.3202,-2.3202,-2.3287,-2.3277,-2.3302,-2.3309,-2.3313,-2.329,-2.3323,-2.3309,-2.3291,-2.3289,-2.327,-2.3244,-2.3237,-2.3228,-2.3218,-2.3201,-2.3329,-2.3329,-2.333,-2.3351,-2.334,-2.3374,-2.3355,-2.335,-2.3346,-2.3376,-2.3385,-2.3358,-2.3334,-2.3286,-2.3281,-2.3239,-2.3227,-2.3204,-2.3189,-2.3157,0,0]}]]